RPC240 RPVB-RPVD

Flight info

Callsign RPC240
Flight time 1h 1m
Altitude 5500
Route VFR
Aircraft C152/L-SD/C

Departure

Time 2026-05-04 10:04
Airport Bacolod-Silay International Airport (RPVB)

Arrival

Time 2026-05-04 11:05
Airport Sibulan Airport (RPVD)
Time Latitude Longitude Altitude Speed Heading
2026-05-04 09:51 10.77336 123.01408 80 ft 0 kts 29°
2026-05-04 09:54 10.77337 123.01415 80 ft 5 kts 116°
2026-05-04 09:55 10.77291 123.01402 80 ft 9 kts 211°
2026-05-04 09:55 10.77285 123.01408 80 ft 4 kts 21°
2026-05-04 09:55 10.77286 123.01409 80 ft 0 kts 36°
2026-05-04 10:00 10.77373 123.01492 89 ft 7 kts 60°
2026-05-04 10:00 10.77346 123.01552 87 ft 12 kts 118°
2026-05-04 10:02 10.76901 123.01462 90 ft 0 kts 48°
2026-05-04 10:04 10.79039 123.02368 555 ft 82 kts 344°
2026-05-04 10:04 10.79407 123.01854 649 ft 100 kts 302°
2026-05-04 10:04 10.79524 123.01173 780 ft 94 kts 286°
2026-05-04 10:04 10.79607 123.00516 822 ft 97 kts 278°
2026-05-04 10:05 10.79407 122.99831 896 ft 107 kts 242°
2026-05-04 10:05 10.78929 122.99252 920 ft 107 kts 216°
2026-05-04 10:05 10.78313 122.98809 1005 ft 109 kts 209°
2026-05-04 10:05 10.77661 122.98407 1060 ft 111 kts 206°
2026-05-04 10:06 10.76995 122.97983 1134 ft 114 kts 206°
2026-05-04 10:06 10.76345 122.97562 1278 ft 106 kts 209°
2026-05-04 10:06 10.75709 122.97244 1379 ft 101 kts 205°
2026-05-04 10:08 10.71880 122.95373 1867 ft 103 kts 202°
2026-05-04 10:08 10.71218 122.95105 1928 ft 103 kts 203°
2026-05-04 10:08 10.70535 122.94841 1994 ft 106 kts 202°
2026-05-04 10:08 10.69856 122.94576 2114 ft 104 kts 202°
2026-05-04 10:09 10.69186 122.94307 2205 ft 101 kts 203°
2026-05-04 10:09 10.68553 122.94013 2275 ft 100 kts 207°
2026-05-04 10:09 10.67917 122.93694 2329 ft 103 kts 206°
2026-05-04 10:09 10.67269 122.93391 2411 ft 101 kts 202°
2026-05-04 10:10 10.66644 122.93090 2495 ft 99 kts 207°
2026-05-04 10:10 10.66050 122.92724 2553 ft 99 kts 211°
2026-05-04 10:10 10.65461 122.92362 2602 ft 99 kts 209°
2026-05-04 10:10 10.64853 122.92028 2647 ft 99 kts 207°
2026-05-04 10:11 10.64245 122.91693 2688 ft 100 kts 205°
2026-05-04 10:11 10.63625 122.91378 2734 ft 99 kts 206°
2026-05-04 10:11 10.63015 122.91051 2783 ft 99 kts 207°
2026-05-04 10:11 10.62413 122.90704 2822 ft 100 kts 208°
2026-05-04 10:12 10.61810 122.90351 2868 ft 100 kts 209°
2026-05-04 10:12 10.61216 122.89988 2921 ft 99 kts 210°
2026-05-04 10:12 10.60622 122.89618 2959 ft 100 kts 210°
2026-05-04 10:12 10.60043 122.89226 3014 ft 100 kts 215°
2026-05-04 10:13 10.59491 122.88809 3045 ft 102 kts 218°
2026-05-04 10:13 10.58918 122.88379 3080 ft 102 kts 215°
2026-05-04 10:13 10.58316 122.87976 3104 ft 104 kts 212°
2026-05-04 10:13 10.57688 122.87617 3147 ft 103 kts 209°
2026-05-04 10:14 10.57052 122.87268 3177 ft 104 kts 205°
2026-05-04 10:14 10.56386 122.86996 3233 ft 102 kts 200°
2026-05-04 10:16 10.51555 122.85640 3657 ft 106 kts 188°
2026-05-04 10:16 10.50840 122.85524 3728 ft 104 kts 186°
2026-05-04 10:16 10.50135 122.85454 3805 ft 100 kts 178°
2026-05-04 10:16 10.49464 122.85568 3878 ft 96 kts 156°
2026-05-04 10:17 10.48866 122.85870 3921 ft 97 kts 147°
2026-05-04 10:17 10.48275 122.86191 4003 ft 95 kts 147°
2026-05-04 10:19 10.44648 122.88744 4487 ft 85 kts 138°
2026-05-04 10:19 10.44182 122.89121 4518 ft 87 kts 137°
2026-05-04 10:19 10.43686 122.89483 4553 ft 90 kts 141°
2026-05-04 10:19 10.43158 122.89842 4620 ft 90 kts 142°
2026-05-04 10:20 10.42813 122.90069 4675 ft 88 kts 140°
2026-05-04 10:20 10.42141 122.90549 4726 ft 88 kts 137°
2026-05-04 10:20 10.41661 122.90919 4764 ft 89 kts 137°
2026-05-04 10:20 10.41187 122.91310 4834 ft 87 kts 134°
2026-05-04 10:21 10.40715 122.91705 4921 ft 88 kts 137°
2026-05-04 10:21 10.40233 122.92097 5009 ft 90 kts 135°
2026-05-04 10:21 10.39915 122.92380 5075 ft 90 kts 135°
2026-05-04 10:21 10.39322 122.92953 5223 ft 88 kts 128°
2026-05-04 10:22 10.38616 122.93705 5359 ft 90 kts 135°
2026-05-04 10:22 10.38118 122.94109 5432 ft 91 kts 135°
2026-05-04 10:22 10.37618 122.94504 5502 ft 93 kts 135°
2026-05-04 10:23 10.37107 122.94906 5533 ft 95 kts 136°
2026-05-04 10:23 10.36585 122.95320 5524 ft 95 kts 135°
2026-05-04 10:25 10.32696 122.98238 5515 ft 102 kts 143°
2026-05-04 10:25 10.32113 122.98643 5516 ft 102 kts 141°
2026-05-04 10:25 10.31521 122.99038 5513 ft 101 kts 142°
2026-05-04 10:25 10.30936 122.99427 5507 ft 100 kts 142°
2026-05-04 10:26 10.30357 122.99819 5512 ft 100 kts 142°
2026-05-04 10:26 10.29779 123.00206 5509 ft 99 kts 142°
2026-05-04 10:26 10.29206 123.00603 5510 ft 100 kts 142°
2026-05-04 10:26 10.28626 123.00991 5508 ft 100 kts 142°
2026-05-04 10:27 10.28060 123.01381 5509 ft 100 kts 142°
2026-05-04 10:27 10.27480 123.01789 5507 ft 100 kts 142°
2026-05-04 10:27 10.26911 123.02189 5507 ft 99 kts 141°
2026-05-04 10:27 10.26345 123.02563 5508 ft 98 kts 143°
2026-05-04 10:28 10.25770 123.02947 5508 ft 99 kts 141°
2026-05-04 10:28 10.25193 123.03335 5507 ft 99 kts 141°
2026-05-04 10:28 10.24618 123.03701 5502 ft 96 kts 142°
2026-05-04 10:28 10.24049 123.04053 5503 ft 96 kts 142°
2026-05-04 10:29 10.23483 123.04415 5504 ft 97 kts 142°
2026-05-04 10:29 10.22916 123.04790 5507 ft 98 kts 142°
2026-05-04 10:29 10.22346 123.05162 5503 ft 97 kts 142°
2026-05-04 10:29 10.21773 123.05526 5504 ft 97 kts 142°
2026-05-04 10:30 10.21208 123.05905 5505 ft 98 kts 142°
2026-05-04 10:30 10.20640 123.06280 5505 ft 97 kts 141°
2026-05-04 10:30 10.20092 123.06667 5504 ft 95 kts 140°
2026-05-04 10:30 10.19541 123.07035 5503 ft 95 kts 142°
2026-05-04 10:31 10.19002 123.07409 5501 ft 94 kts 140°
2026-05-04 10:31 10.18456 123.07784 5504 ft 96 kts 141°
2026-05-04 10:32 10.15192 123.10015 5503 ft 96 kts 141°
2026-05-04 10:33 10.14650 123.10409 5504 ft 96 kts 141°
2026-05-04 10:33 10.14107 123.10799 5502 ft 96 kts 141°
2026-05-04 10:33 10.13520 123.11126 5506 ft 96 kts 148°
2026-05-04 10:33 10.12920 123.11431 5503 ft 96 kts 148°
2026-05-04 10:34 10.12322 123.11736 5502 ft 97 kts 148°
2026-05-04 10:34 10.11707 123.12045 5508 ft 100 kts 148°
2026-05-04 10:34 10.11091 123.12358 5504 ft 97 kts 148°
2026-05-04 10:34 10.10487 123.12664 5506 ft 97 kts 147°
2026-05-04 10:35 10.09870 123.12968 5507 ft 100 kts 149°
2026-05-04 10:35 10.09254 123.13292 5507 ft 99 kts 148°
2026-05-04 10:35 10.08641 123.13604 5507 ft 98 kts 148°
2026-05-04 10:35 10.08039 123.13904 5505 ft 98 kts 148°
2026-05-04 10:36 10.07428 123.14214 5506 ft 99 kts 148°
2026-05-04 10:36 10.06818 123.14534 5507 ft 98 kts 148°
2026-05-04 10:36 10.06212 123.14855 5508 ft 99 kts 147°
2026-05-04 10:36 10.05580 123.15138 5504 ft 101 kts 161°
2026-05-04 10:37 10.04885 123.15238 5503 ft 100 kts 167°
2026-05-04 10:37 10.04200 123.15291 5494 ft 97 kts 172°
2026-05-04 10:37 10.03540 123.15325 5499 ft 96 kts 171°
2026-05-04 10:37 10.02863 123.15356 5499 ft 99 kts 172°
2026-05-04 10:39 9.98519 123.15517 5510 ft 101 kts 172°
2026-05-04 10:39 9.97812 123.15538 5514 ft 103 kts 172°
2026-05-04 10:39 9.97094 123.15570 5509 ft 103 kts 172°
2026-05-04 10:40 9.96384 123.15620 5506 ft 102 kts 173°
2026-05-04 10:40 9.95671 123.15656 5508 ft 103 kts 173°
2026-05-04 10:40 9.94948 123.15676 5510 ft 104 kts 173°
2026-05-04 10:40 9.94224 123.15693 5508 ft 103 kts 173°
2026-05-04 10:41 9.93519 123.15714 5501 ft 99 kts 173°
2026-05-04 10:41 9.92834 123.15731 5501 ft 99 kts 173°
2026-05-04 10:41 9.92147 123.15754 5500 ft 99 kts 173°
2026-05-04 10:41 9.91451 123.15767 5503 ft 101 kts 173°
2026-05-04 10:42 9.90740 123.15781 5504 ft 102 kts 173°
2026-05-04 10:42 9.90029 123.15809 5505 ft 102 kts 173°
2026-05-04 10:42 9.89320 123.15839 5511 ft 102 kts 173°
2026-05-04 10:42 9.88610 123.15862 5511 ft 102 kts 173°
2026-05-04 10:43 9.87904 123.15882 5505 ft 101 kts 173°
2026-05-04 10:44 9.82721 123.16050 4915 ft 109 kts 173°
2026-05-04 10:45 9.81963 123.16070 4821 ft 109 kts 173°
2026-05-04 10:45 9.81203 123.16091 4728 ft 109 kts 173°
2026-05-04 10:45 9.80440 123.16111 4640 ft 110 kts 173°
2026-05-04 10:45 9.79678 123.16131 4536 ft 110 kts 173°
2026-05-04 10:46 9.78914 123.16148 4433 ft 110 kts 173°
2026-05-04 10:46 9.78162 123.16165 4340 ft 109 kts 173°
2026-05-04 10:46 9.77398 123.16182 4239 ft 108 kts 173°
2026-05-04 10:46 9.76646 123.16197 4141 ft 108 kts 173°
2026-05-04 10:47 9.75896 123.16218 4044 ft 108 kts 173°
2026-05-04 10:47 9.75143 123.16248 3946 ft 109 kts 173°
2026-05-04 10:47 9.74392 123.16276 3854 ft 110 kts 174°
2026-05-04 10:47 9.73631 123.16315 3759 ft 109 kts 173°
2026-05-04 10:49 9.68982 123.16571 3173 ft 107 kts 173°
2026-05-04 10:49 9.68233 123.16601 3078 ft 108 kts 173°
2026-05-04 10:50 9.67481 123.16634 2982 ft 109 kts 174°
2026-05-04 10:51 9.62197 123.17084 2510 ft 105 kts 166°
2026-05-04 10:52 9.61494 123.17207 2506 ft 101 kts 166°
2026-05-04 10:52 9.60809 123.17324 2503 ft 98 kts 167°
2026-05-04 10:52 9.60141 123.17443 2503 ft 97 kts 166°
2026-05-04 10:54 9.55477 123.18446 2507 ft 100 kts 161°
2026-05-04 10:54 9.54815 123.18675 2508 ft 101 kts 158°
2026-05-04 10:56 9.50236 123.20196 2505 ft 101 kts 158°
2026-05-04 10:56 9.49575 123.20429 2499 ft 100 kts 157°
2026-05-04 10:56 9.48916 123.20658 2500 ft 99 kts 157°
2026-05-04 10:57 9.48261 123.20904 2498 ft 101 kts 157°
2026-05-04 10:57 9.47609 123.21142 2497 ft 98 kts 157°
2026-05-04 10:57 9.46970 123.21374 2498 ft 97 kts 157°
2026-05-04 10:57 9.46325 123.21611 2502 ft 101 kts 158°
2026-05-04 10:58 9.45665 123.21849 2484 ft 100 kts 156°
2026-05-04 10:58 9.45026 123.22090 2422 ft 97 kts 157°
2026-05-04 10:58 9.44400 123.22342 2362 ft 96 kts 154°
2026-05-04 10:58 9.43780 123.22602 2313 ft 98 kts 153°
2026-05-04 10:59 9.43143 123.22874 2249 ft 98 kts 154°
2026-05-04 10:59 9.42515 123.23142 2168 ft 98 kts 155°
2026-05-04 10:59 9.41890 123.23382 2097 ft 98 kts 157°
2026-05-04 10:59 9.41230 123.23566 2001 ft 98 kts 156°
2026-05-04 11:00 9.40584 123.23789 1905 ft 99 kts 155°
2026-05-04 11:01 9.36630 123.25910 1453 ft 89 kts 152°
2026-05-04 11:02 9.36072 123.26171 1387 ft 88 kts 150°
2026-05-04 11:02 9.35533 123.26440 1293 ft 86 kts 147°
2026-05-04 11:05 9.33428 123.30018 39 ft 13 kts 272°
2026-05-04 11:06 9.33431 123.29920 42 ft 15 kts 273°
2026-05-04 11:06 9.33439 123.29819 44 ft 17 kts 276°
2026-05-04 11:06 9.33446 123.29703 44 ft 20 kts 275°
2026-05-04 11:06 9.33453 123.29555 42 ft 21 kts 273°
2026-05-04 11:08 9.33403 123.29363 46 ft 0 kts 91°